Simultaneous Nadir Overpasses (SNOs) Predictions

Prediction of SNOs between GOES-17 and NOAA-20 Satellite Orbit:

Table of predicted SNOs for the next 14.0 days since TLE Epoch: 2/28/2020
Index Date Time (GOES-17) GOES-17 Lat,Lon NOAA-20 Lat,Lon Distance(km) Time Diff (sec)
1 02/29/2020 22:46:55 -0.02,-137.22 -0.77,-140.64 389.16 80
2 03/01/2020 22:30:51 -0.02,-137.22 0.23,-136.10 127.23 80
3 03/03/2020 10:52:39 0.02,-137.22 0.97,-141.37 473.41 80
4 03/04/2020 10:31:15 0.02,-137.21 -0.09,-136.84 42.40 80
5 03/06/2020 22:34:27 -0.02,-137.18 -0.14,-137.60 48.62 80
6 03/07/2020 22:18:24 -0.02,-137.17 0.92,-133.08 466.58 80
7 03/09/2020 10:40:12 0.01,-137.16 0.28,-138.35 135.69 80
8 03/10/2020 10:18:48 0.01,-137.14 -0.72,-133.81 379.13 80
9 03/11/2020 22:40:45 -0.01,-137.12 -0.44,-139.12 228.18 80
10 03/12/2020 22:24:40 -0.01,-137.10 0.56,-134.59 286.45 80




NCC Satellite Simultaneous Nadir Overpasses (SNOs) Prediction Service
